CWI644 LHBP-LTAI

Flight info

Callsign CWI644
Flight time 2h 7m
Altitude 35000
Route GAZDA DCT MAVIR DCT LUSOM DCT PADGU DCT LELTI DCT XANEX L606 GASRU DCT ETOPO DCT ADORU UL606 CRD UL854 KOZLU
Aircraft A320/M-SDE3FGHIRWY/LB1

Departure

Time 2026-05-04 23:43
Airport Budapest Liszt Ferenc International Airport (LHBP)

Arrival

Time 2026-05-05 01:50
Airport Antalya International Airport (LTAI)
Time Latitude Longitude Altitude Speed Heading
2026-05-04 23:15 47.43546 19.26013 458 ft 0 kts 312°
2026-05-04 23:38 47.43549 19.26008 457 ft 2 kts 312°
2026-05-04 23:39 47.43561 19.25989 457 ft 3 kts 312°
2026-05-04 23:39 47.43585 19.25973 457 ft 5 kts 353°
2026-05-04 23:39 47.43617 19.25997 457 ft 6 kts 38°
2026-05-04 23:39 47.43657 19.26037 457 ft 8 kts 20°
2026-05-04 23:40 47.43709 19.26009 457 ft 9 kts 316°
2026-05-04 23:40 47.43770 19.25973 457 ft 10 kts
2026-05-04 23:40 47.43832 19.26042 457 ft 12 kts 43°
2026-05-04 23:40 47.43899 19.26132 458 ft 14 kts 42°
2026-05-04 23:41 47.43974 19.26233 458 ft 15 kts 42°
2026-05-04 23:41 47.44046 19.26338 464 ft 13 kts 54°
2026-05-04 23:41 47.44071 19.26432 471 ft 8 kts 79°
2026-05-04 23:41 47.44068 19.26515 470 ft 10 kts 111°
2026-05-04 23:42 47.43965 19.26692 470 ft 50 kts 132°
2026-05-04 23:42 47.43585 19.27310 473 ft 110 kts 133°
2026-05-04 23:42 47.42962 19.28319 460 ft 155 kts 132°
2026-05-04 23:42 47.42212 19.29584 830 ft 167 kts 129°
2026-05-04 23:43 47.41506 19.30984 1415 ft 173 kts 128°
2026-05-04 23:43 47.40893 19.32552 1954 ft 177 kts 122°
2026-05-04 23:43 47.40349 19.34179 2431 ft 181 kts 121°
2026-05-04 23:43 47.39774 19.35840 2895 ft 182 kts 128°
2026-05-04 23:44 47.39048 19.37353 3455 ft 179 kts 129°
2026-05-04 23:44 47.38273 19.38785 3902 ft 180 kts 144°
2026-05-04 23:44 47.37148 19.39559 4307 ft 181 kts 173°
2026-05-04 23:44 47.35904 19.39465 4744 ft 181 kts 201°
2026-05-04 23:45 47.34862 19.38422 5108 ft 188 kts 234°
2026-05-04 23:45 47.34275 19.36683 5561 ft 190 kts 244°
2026-05-04 23:45 47.33639 19.34949 5917 ft 200 kts 239°
2026-05-04 23:45 47.32872 19.33094 6052 ft 224 kts 238°
2026-05-04 23:46 47.31993 19.31045 6304 ft 249 kts 237°
2026-05-04 23:46 47.31023 19.28815 6752 ft 265 kts 237°
2026-05-04 23:46 47.30013 19.26509 7444 ft 270 kts 237°
2026-05-04 23:46 47.28987 19.24172 8213 ft 274 kts 236°
2026-05-04 23:47 47.27944 19.21797 8980 ft 277 kts 236°
2026-05-04 23:47 47.26890 19.19402 9733 ft 280 kts 236°
2026-05-04 23:47 47.25820 19.16972 10297 ft 290 kts 236°
2026-05-04 23:47 47.24675 19.14377 10453 ft 313 kts 236°
2026-05-04 23:48 47.23447 19.11593 10576 ft 335 kts 236°
2026-05-04 23:48 47.22033 19.08741 10703 ft 354 kts 225°
2026-05-04 23:48 47.20003 19.06631 11075 ft 363 kts 204°
2026-05-04 23:48 47.17551 19.05707 11617 ft 368 kts 184°
2026-05-04 23:49 47.15007 19.06144 12198 ft 373 kts 163°
2026-05-04 23:49 47.12718 19.07864 12760 ft 378 kts 148°
2026-05-04 23:49 47.10528 19.10032 13357 ft 381 kts 147°
2026-05-04 23:49 47.08331 19.12230 13938 ft 384 kts 147°
2026-05-04 23:50 47.06118 19.14447 14445 ft 386 kts 147°
2026-05-04 23:50 47.03887 19.16669 14937 ft 389 kts 147°
2026-05-04 23:50 47.01628 19.18910 15424 ft 393 kts 147°
2026-05-04 23:50 46.99361 19.21156 15893 ft 396 kts 147°
2026-05-04 23:51 46.97067 19.23424 16350 ft 400 kts 147°
2026-05-04 23:51 46.94748 19.25711 16836 ft 403 kts 147°
2026-05-04 23:51 46.92411 19.28013 17326 ft 406 kts 147°
2026-05-04 23:51 46.90057 19.30329 17824 ft 409 kts 147°
2026-05-04 23:52 46.87689 19.32659 18318 ft 412 kts 146°
2026-05-04 23:52 46.85322 19.34986 18733 ft 415 kts 146°
2026-05-04 23:52 46.82914 19.37352 19147 ft 419 kts 147°
2026-05-04 23:52 46.80485 19.39732 19559 ft 422 kts 146°
2026-05-04 23:53 46.78058 19.42178 19994 ft 425 kts 145°
2026-05-04 23:53 46.75652 19.44701 20383 ft 429 kts 144°
2026-05-04 23:53 46.73241 19.47291 20777 ft 432 kts 143°
2026-05-04 23:53 46.70818 19.49915 21125 ft 435 kts 143°
2026-05-04 23:54 46.68373 19.52556 21518 ft 438 kts 143°
2026-05-04 23:54 46.65916 19.55186 21884 ft 441 kts 144°
2026-05-04 23:54 46.63424 19.57825 22218 ft 444 kts 144°
2026-05-04 23:54 46.60922 19.60457 22583 ft 446 kts 144°
2026-05-04 23:55 46.58392 19.63105 22932 ft 448 kts 144°
2026-05-04 23:55 46.55852 19.65759 23283 ft 451 kts 144°
2026-05-04 23:55 46.50733 19.71117 23897 ft 456 kts 144°
2026-05-04 23:56 46.48153 19.73819 24166 ft 459 kts 144°
2026-05-04 23:56 46.45557 19.76535 24495 ft 460 kts 144°
2026-05-04 23:56 46.42971 19.79239 24905 ft 459 kts 144°
2026-05-04 23:56 46.40458 19.81997 25305 ft 458 kts 139°
2026-05-04 23:57 46.38211 19.85250 25719 ft 456 kts 130°
2026-05-04 23:57 46.36160 19.88755 26141 ft 456 kts 129°
2026-05-04 23:57 46.34089 19.92289 26580 ft 455 kts 129°
2026-05-04 23:57 46.32037 19.95770 27009 ft 454 kts 130°
2026-05-04 23:58 46.30008 19.99189 27437 ft 454 kts 130°
2026-05-04 23:58 46.27922 20.02697 27882 ft 453 kts 130°
2026-05-04 23:58 46.25872 20.06140 28323 ft 452 kts 130°
2026-05-04 23:58 46.23823 20.09586 28769 ft 452 kts 130°
2026-05-04 23:59 46.21778 20.13028 29218 ft 451 kts 130°
2026-05-04 23:59 46.19757 20.16427 29639 ft 451 kts 130°
2026-05-04 23:59 46.17715 20.19848 30074 ft 451 kts 130°
2026-05-04 23:59 46.15665 20.23277 30456 ft 450 kts 130°
2026-05-05 00:00 46.13620 20.26694 30833 ft 450 kts 130°
2026-05-05 00:00 46.12926 20.27852 30966 ft 450 kts 130°
2026-05-05 00:00 46.09530 20.33513 31577 ft 449 kts 129°
2026-05-05 00:00 46.07490 20.36919 31957 ft 449 kts 129°
2026-05-05 00:01 46.05451 20.40320 32346 ft 448 kts 130°
2026-05-05 00:01 46.03413 20.43714 32731 ft 448 kts 130°
2026-05-05 00:01 46.01375 20.47099 33118 ft 447 kts 130°
2026-05-05 00:01 45.99342 20.50471 33499 ft 447 kts 130°
2026-05-05 00:02 45.97305 20.53844 33876 ft 446 kts 130°
2026-05-05 00:02 45.95267 20.57213 34210 ft 446 kts 130°
2026-05-05 00:02 45.93231 20.60574 34513 ft 446 kts 130°
2026-05-05 00:02 45.91195 20.63933 34793 ft 446 kts 130°
2026-05-05 00:03 45.89159 20.67289 35012 ft 446 kts 130°
2026-05-05 00:03 45.85065 20.74027 35069 ft 457 kts 130°
2026-05-05 00:04 45.80833 20.80992 35087 ft 467 kts 130°
2026-05-05 00:04 45.76535 20.88024 35086 ft 469 kts 130°
2026-05-05 00:05 45.72232 20.95039 35078 ft 469 kts 130°
2026-05-05 00:05 45.67917 21.02060 35082 ft 470 kts 130°
2026-05-05 00:06 45.63595 21.09076 35083 ft 470 kts 130°
2026-05-05 00:06 45.59275 21.16079 35090 ft 470 kts 130°
2026-05-05 00:07 45.54941 21.23086 35089 ft 471 kts 130°
2026-05-05 00:07 45.50593 21.30095 35094 ft 472 kts 130°
2026-05-05 00:08 45.46270 21.37051 35090 ft 472 kts 130°
2026-05-05 00:08 45.41908 21.44040 35116 ft 472 kts 130°
2026-05-05 00:09 45.37733 21.51234 35105 ft 471 kts 125°
2026-05-05 00:09 45.34461 21.57489 35111 ft 471 kts 124°
2026-05-05 00:10 45.30584 21.64986 35105 ft 471 kts 124°
2026-05-05 00:10 45.26623 21.72400 35117 ft 471 kts 125°
2026-05-05 00:11 45.22607 21.79761 35117 ft 472 kts 126°
2026-05-05 00:11 45.18589 21.87114 35116 ft 472 kts 126°
2026-05-05 00:12 45.14575 21.94484 35121 ft 472 kts 125°
2026-05-05 00:12 45.10559 22.01848 35137 ft 472 kts 125°
2026-05-05 00:13 45.06567 22.09142 35139 ft 472 kts 125°
2026-05-05 00:13 45.02545 22.16475 35138 ft 472 kts 126°
2026-05-05 00:14 44.98514 22.23792 35130 ft 472 kts 126°
2026-05-05 00:14 44.94482 22.31099 35144 ft 472 kts 126°
2026-05-05 00:15 44.90449 22.38410 35134 ft 472 kts 126°
2026-05-05 00:15 44.86410 22.45706 35130 ft 472 kts 126°
2026-05-05 00:16 44.82363 22.52980 35126 ft 471 kts 126°
2026-05-05 00:16 44.78313 22.60251 35129 ft 471 kts 126°
2026-05-05 00:17 44.74205 22.67442 35121 ft 471 kts 128°
2026-05-05 00:17 44.70030 22.74467 35104 ft 471 kts 128°
2026-05-05 00:18 44.65820 22.81515 35096 ft 471 kts 128°
2026-05-05 00:18 44.61636 22.88589 35085 ft 471 kts 128°
2026-05-05 00:19 44.57462 22.95658 35080 ft 471 kts 128°
2026-05-05 00:19 44.53275 23.02729 35081 ft 471 kts 128°
2026-05-05 00:20 44.49078 23.09785 35084 ft 471 kts 128°
2026-05-05 00:20 44.44881 23.16826 35097 ft 471 kts 128°
2026-05-05 00:21 44.40670 23.23868 35096 ft 471 kts 128°
2026-05-05 00:21 44.36465 23.30884 35087 ft 471 kts 128°
2026-05-05 00:22 44.32251 23.37892 35090 ft 471 kts 128°
2026-05-05 00:22 44.27879 23.44706 35103 ft 472 kts 134°
2026-05-05 00:23 44.23192 23.51128 35087 ft 472 kts 134°
2026-05-05 00:23 44.18494 23.57539 35089 ft 473 kts 134°
2026-05-05 00:24 44.13795 23.63930 35081 ft 473 kts 134°
2026-05-05 00:24 44.09085 23.70321 35096 ft 473 kts 134°
2026-05-05 00:25 44.04372 23.76708 35095 ft 473 kts 134°
2026-05-05 00:25 43.99652 23.83088 35082 ft 474 kts 134°
2026-05-05 00:26 43.94949 23.89429 35100 ft 474 kts 134°
2026-05-05 00:26 43.90215 23.95800 35099 ft 474 kts 134°
2026-05-05 00:27 43.85482 24.02163 35098 ft 474 kts 134°
2026-05-05 00:27 43.80749 24.08504 35101 ft 474 kts 134°
2026-05-05 00:28 43.76005 24.14842 35113 ft 474 kts 135°
2026-05-05 00:28 43.71261 24.21162 35104 ft 473 kts 135°
2026-05-05 00:29 43.66523 24.27463 35103 ft 473 kts 135°
2026-05-05 00:29 43.61773 24.33757 35108 ft 473 kts 135°
2026-05-05 00:30 43.57023 24.40045 35115 ft 473 kts 135°
2026-05-05 00:30 43.52280 24.46328 35117 ft 473 kts 135°
2026-05-05 00:31 43.47520 24.52607 35114 ft 473 kts 135°
2026-05-05 00:31 43.42756 24.58863 35111 ft 473 kts 135°
2026-05-05 00:32 43.37991 24.65115 35122 ft 473 kts 136°
2026-05-05 00:32 43.33255 24.71326 35116 ft 473 kts 136°
2026-05-05 00:33 43.28460 24.77594 35112 ft 473 kts 136°
2026-05-05 00:33 43.23711 24.83765 35120 ft 473 kts 136°
2026-05-05 00:34 43.18900 24.90013 35104 ft 473 kts 136°
2026-05-05 00:34 43.14115 24.96207 35105 ft 473 kts 136°
2026-05-05 00:35 43.09377 25.02357 35108 ft 473 kts 136°
2026-05-05 00:35 43.04615 25.08574 35112 ft 473 kts 136°
2026-05-05 00:36 42.99841 25.14775 35116 ft 473 kts 136°
2026-05-05 00:36 42.95058 25.20955 35100 ft 473 kts 136°
2026-05-05 00:37 42.90280 25.27132 35109 ft 473 kts 136°
2026-05-05 00:37 42.85504 25.33298 35086 ft 473 kts 136°
2026-05-05 00:38 42.80712 25.39463 35078 ft 474 kts 137°
2026-05-05 00:38 42.75907 25.45625 35082 ft 474 kts 137°
2026-05-05 00:39 42.71091 25.51780 35094 ft 474 kts 137°
2026-05-05 00:39 42.66287 25.57913 35116 ft 473 kts 136°
2026-05-05 00:40 42.61499 25.64019 35113 ft 472 kts 137°
2026-05-05 00:40 42.56708 25.70111 35106 ft 471 kts 137°
2026-05-05 00:41 42.51922 25.76182 35105 ft 471 kts 137°
2026-05-05 00:41 42.47137 25.82233 35109 ft 470 kts 137°
2026-05-05 00:42 42.42358 25.88273 35104 ft 470 kts 137°
2026-05-05 00:42 42.37617 25.94259 35103 ft 469 kts 137°
2026-05-05 00:43 42.32839 26.00276 35092 ft 469 kts 136°
2026-05-05 00:43 42.28047 26.06278 35089 ft 470 kts 136°
2026-05-05 00:44 42.23244 26.12268 35093 ft 470 kts 137°
2026-05-05 00:44 42.18439 26.18253 35102 ft 471 kts 136°
2026-05-05 00:45 42.13617 26.24239 35102 ft 471 kts 136°
2026-05-05 00:45 42.08794 26.30218 35102 ft 471 kts 136°
2026-05-05 00:46 42.03970 26.36194 35116 ft 471 kts 136°
2026-05-05 00:46 41.99138 26.42149 35111 ft 472 kts 136°
2026-05-05 00:47 41.94289 26.48109 35111 ft 472 kts 136°
2026-05-05 00:47 41.89438 26.54051 35110 ft 472 kts 136°
2026-05-05 00:48 41.84300 26.59546 35108 ft 473 kts 144°
2026-05-05 00:48 41.78961 26.64591 35113 ft 473 kts 143°
2026-05-05 00:49 41.73580 26.69679 35103 ft 474 kts 143°
2026-05-05 00:49 41.68191 26.74765 35102 ft 474 kts 143°
2026-05-05 00:50 41.62798 26.79838 35101 ft 474 kts 143°
2026-05-05 00:50 41.57370 26.84932 35098 ft 474 kts 144°
2026-05-05 00:51 41.52000 26.89963 35097 ft 474 kts 143°
2026-05-05 00:51 41.46598 26.95018 35089 ft 475 kts 143°
2026-05-05 00:52 41.41182 27.00071 35084 ft 475 kts 144°
2026-05-05 00:52 41.35754 27.05108 35083 ft 476 kts 144°
2026-05-05 00:53 41.30327 27.10147 35085 ft 476 kts 144°
2026-05-05 00:53 41.24898 27.15188 35077 ft 476 kts 144°
2026-05-05 00:54 41.19459 27.20218 35077 ft 477 kts 143°
2026-05-05 00:54 41.14921 27.24411 35062 ft 478 kts 143°
2026-05-05 00:55 41.09451 27.29453 35059 ft 479 kts 143°
2026-05-05 00:55 41.03969 27.34492 35060 ft 480 kts 144°
2026-05-05 00:56 40.98477 27.39524 35057 ft 480 kts 143°
2026-05-05 00:56 40.92931 27.44471 35057 ft 481 kts 146°
2026-05-05 00:57 40.87142 27.48940 35059 ft 482 kts 149°
2026-05-05 00:57 40.81246 27.53198 35054 ft 483 kts 149°
2026-05-05 00:58 40.75377 27.57530 35053 ft 484 kts 148°
2026-05-05 00:58 40.69541 27.61957 35048 ft 484 kts 148°
2026-05-05 00:59 40.63707 27.66400 35050 ft 485 kts 148°
2026-05-05 00:59 40.57858 27.70823 35051 ft 485 kts 148°
2026-05-05 01:00 40.52003 27.75214 35054 ft 485 kts 148°
2026-05-05 01:00 40.46126 27.79604 35054 ft 486 kts 148°
2026-05-05 01:01 40.40255 27.83992 35054 ft 486 kts 148°
2026-05-05 01:01 40.34380 27.88380 35056 ft 486 kts 148°
2026-05-05 01:02 40.28507 27.92759 35061 ft 486 kts 148°
2026-05-05 01:02 40.22628 27.97126 35060 ft 486 kts 148°
2026-05-05 01:03 40.16782 28.01458 35062 ft 486 kts 148°
2026-05-05 01:03 40.10896 28.05821 35066 ft 486 kts 148°
2026-05-05 01:04 40.05007 28.10180 35076 ft 487 kts 148°
2026-05-05 01:04 39.96143 28.16706 35059 ft 488 kts 148°
2026-05-05 01:05 39.90223 28.21056 35062 ft 489 kts 148°
2026-05-05 01:05 39.84289 28.25375 35061 ft 489 kts 149°
2026-05-05 01:06 39.78338 28.29697 35057 ft 490 kts 148°
2026-05-05 01:06 39.72379 28.34017 35058 ft 490 kts 148°
2026-05-05 01:07 39.66412 28.38333 35080 ft 491 kts 148°
2026-05-05 01:07 39.60483 28.42625 35073 ft 492 kts 148°
2026-05-05 01:08 39.54508 28.46930 35073 ft 492 kts 148°
2026-05-05 01:08 39.48525 28.51234 35073 ft 492 kts 148°
2026-05-05 01:09 39.42540 28.55535 35078 ft 492 kts 148°
2026-05-05 01:09 39.36549 28.59835 35070 ft 492 kts 148°
2026-05-05 01:10 39.30566 28.64128 35068 ft 492 kts 148°
2026-05-05 01:10 39.24571 28.68405 35079 ft 493 kts 148°
2026-05-05 01:11 39.18564 28.72679 35071 ft 493 kts 148°
2026-05-05 01:11 39.12550 28.76951 35061 ft 494 kts 148°
2026-05-05 01:12 39.06564 28.81199 35050 ft 494 kts 148°
2026-05-05 01:12 39.00558 28.85485 35048 ft 494 kts 148°
2026-05-05 01:13 38.94550 28.89775 35052 ft 494 kts 148°
2026-05-05 01:13 38.88539 28.94049 35047 ft 494 kts 148°
2026-05-05 01:14 38.82516 28.98313 35054 ft 495 kts 149°
2026-05-05 01:14 38.76480 29.02574 35038 ft 495 kts 149°
2026-05-05 01:15 38.70428 29.06836 35033 ft 496 kts 149°
2026-05-05 01:15 38.64373 29.11096 35034 ft 497 kts 149°
2026-05-05 01:16 38.58326 29.15358 35033 ft 497 kts 149°
2026-05-05 01:16 38.52259 29.19624 35034 ft 497 kts 149°
2026-05-05 01:17 38.46205 29.23876 35036 ft 496 kts 149°
2026-05-05 01:17 38.40139 29.28108 35049 ft 497 kts 149°
2026-05-05 01:18 38.34109 29.32310 35040 ft 497 kts 149°
2026-05-05 01:18 38.28034 29.36537 35030 ft 497 kts 150°
2026-05-05 01:19 38.21958 29.40757 35028 ft 497 kts 150°
2026-05-05 01:19 38.15877 29.44969 35027 ft 498 kts 150°
2026-05-05 01:20 38.09793 29.49189 35027 ft 498 kts 150°
2026-05-05 01:20 38.03720 29.53401 35022 ft 498 kts 150°
2026-05-05 01:21 37.97636 29.57600 35046 ft 498 kts 150°
2026-05-05 01:21 37.91549 29.61788 35042 ft 497 kts 150°
2026-05-05 01:22 37.85528 29.65921 35017 ft 481 kts 150°
2026-05-05 01:22 37.82590 29.67935 34832 ft 484 kts 150°
2026-05-05 01:22 37.79614 29.70049 34313 ft 494 kts 144°
2026-05-05 01:23 37.77002 29.72813 33100 ft 491 kts 133°
2026-05-05 01:23 37.74555 29.75854 31656 ft 495 kts 131°
2026-05-05 01:23 37.72119 29.78966 30206 ft 500 kts 129°
2026-05-05 01:23 37.69680 29.82118 28532 ft 504 kts 129°
2026-05-05 01:24 37.67222 29.85293 26858 ft 507 kts 130°
2026-05-05 01:24 37.64738 29.88475 25160 ft 510 kts 130°
2026-05-05 01:24 37.62228 29.91654 23473 ft 512 kts 130°
2026-05-05 01:24 37.59722 29.94795 22172 ft 500 kts 131°
2026-05-05 01:25 37.57316 29.97780 21803 ft 470 kts 131°
2026-05-05 01:25 37.55057 30.00573 21630 ft 440 kts 130°
2026-05-05 01:25 37.52950 30.03208 21496 ft 414 kts 130°
2026-05-05 01:25 37.50897 30.05630 21194 ft 399 kts 140°
2026-05-05 01:26 37.48485 30.07186 20652 ft 394 kts 164°
2026-05-05 01:26 37.45798 30.07644 20001 ft 388 kts 178°
2026-05-05 01:26 37.43115 30.07775 19325 ft 385 kts 179°
2026-05-05 01:26 37.40453 30.07814 18689 ft 379 kts 186°
2026-05-05 01:27 37.37849 30.07453 18052 ft 374 kts 189°
2026-05-05 01:27 37.35276 30.07061 17385 ft 370 kts 188°
2026-05-05 01:27 37.32735 30.06676 16751 ft 365 kts 188°
2026-05-05 01:27 37.30228 30.06304 16147 ft 360 kts 188°
2026-05-05 01:28 37.27752 30.05945 15572 ft 355 kts 188°
2026-05-05 01:28 37.25320 30.05600 14998 ft 349 kts 187°
2026-05-05 01:28 37.22911 30.05259 14361 ft 346 kts 187°
2026-05-05 01:28 37.20534 30.04923 13777 ft 342 kts 187°
2026-05-05 01:29 37.18183 30.04592 13150 ft 338 kts 187°
2026-05-05 01:29 37.15858 30.04497 12518 ft 332 kts 168°
2026-05-05 01:29 37.13813 30.05581 11948 ft 320 kts 137°
2026-05-05 01:29 37.12494 30.07698 11380 ft 303 kts 106°
2026-05-05 01:30 37.12089 30.10190 10935 ft 286 kts 89°
2026-05-05 01:30 37.11914 30.12686 10712 ft 289 kts 90°
2026-05-05 01:30 37.11725 30.15200 10468 ft 289 kts 91°
2026-05-05 01:30 37.11526 30.17705 10232 ft 287 kts 91°
2026-05-05 01:31 37.11324 30.20180 10352 ft 287 kts 91°
2026-05-05 01:31 37.11119 30.22684 10355 ft 289 kts 91°
2026-05-05 01:31 37.10913 30.25181 10328 ft 283 kts 91°
2026-05-05 01:31 37.10734 30.27580 10301 ft 269 kts 86°
2026-05-05 01:32 37.10877 30.29836 10256 ft 252 kts 73°
2026-05-05 01:32 37.11378 30.31899 10231 ft 245 kts 62°
2026-05-05 01:32 37.12183 30.33753 10201 ft 241 kts 51°
2026-05-05 01:32 37.13246 30.35355 10185 ft 238 kts 41°
2026-05-05 01:33 37.14522 30.36652 10150 ft 236 kts 30°
2026-05-05 01:33 37.15965 30.37609 10136 ft 234 kts 20°
2026-05-05 01:33 37.17466 30.38390 10109 ft 235 kts 30°
2026-05-05 01:33 37.18655 30.39793 10087 ft 240 kts 54°
2026-05-05 01:34 37.19202 30.41787 10040 ft 249 kts 83°
2026-05-05 01:34 37.19150 30.43982 10045 ft 253 kts 89°
2026-05-05 01:34 37.19057 30.46157 10045 ft 253 kts 89°
2026-05-05 01:34 37.18960 30.48365 9985 ft 254 kts 89°
2026-05-05 01:35 37.18866 30.50562 9860 ft 252 kts 89°
2026-05-05 01:35 37.18746 30.52744 9714 ft 251 kts 90°
2026-05-05 01:35 37.18584 30.54925 9574 ft 251 kts 91°
2026-05-05 01:35 37.18408 30.57108 9438 ft 251 kts 91°
2026-05-05 01:36 37.18230 30.59273 9302 ft 250 kts 91°
2026-05-05 01:36 37.18053 30.61437 9177 ft 249 kts 91°
2026-05-05 01:36 37.17878 30.63589 9187 ft 249 kts 91°
2026-05-05 01:36 37.17704 30.65757 9220 ft 250 kts 91°
2026-05-05 01:37 37.17532 30.67928 9213 ft 250 kts 91°
2026-05-05 01:37 37.17362 30.70102 9087 ft 250 kts 91°
2026-05-05 01:37 37.17136 30.72265 8874 ft 251 kts 96°
2026-05-05 01:37 37.16727 30.74395 8661 ft 252 kts 102°
2026-05-05 01:38 37.16136 30.76474 8342 ft 255 kts 108°
2026-05-05 01:38 37.15394 30.78516 7985 ft 259 kts 110°
2026-05-05 01:38 37.14636 30.80570 7628 ft 261 kts 110°
2026-05-05 01:38 37.13872 30.82645 7273 ft 263 kts 110°
2026-05-05 01:39 37.13102 30.84728 6922 ft 264 kts 110°
2026-05-05 01:39 37.12328 30.86815 6686 ft 262 kts 110°
2026-05-05 01:39 37.11571 30.88848 6558 ft 254 kts 110°
2026-05-05 01:39 37.10834 30.90831 6436 ft 249 kts 110°
2026-05-05 01:40 37.10108 30.92793 6312 ft 251 kts 109°
2026-05-05 01:40 37.09286 30.94792 6182 ft 269 kts 118°
2026-05-05 01:40 37.08103 30.96638 6057 ft 272 kts 132°
2026-05-05 01:40 37.06632 30.98110 5923 ft 272 kts 145°
2026-05-05 01:41 37.04931 30.99150 5922 ft 273 kts 158°
2026-05-05 01:41 37.03713 30.99587 5975 ft 277 kts 166°
2026-05-05 01:41 37.01147 30.99803 5999 ft 277 kts 185°
2026-05-05 01:41 36.99887 30.99558 5998 ft 277 kts 194°
2026-05-05 01:42 36.98077 30.98756 5996 ft 276 kts 207°
2026-05-05 01:42 36.96389 30.97619 6004 ft 276 kts 209°
2026-05-05 01:42 36.94692 30.96478 5997 ft 277 kts 209°
2026-05-05 01:42 36.92990 30.95346 5992 ft 279 kts 209°
2026-05-05 01:43 36.91192 30.94368 6005 ft 283 kts 201°
2026-05-05 01:43 36.89305 30.93676 6011 ft 284 kts 193°
2026-05-05 01:43 36.87354 30.93271 5884 ft 283 kts 186°
2026-05-05 01:43 36.85422 30.93080 5752 ft 275 kts 185°
2026-05-05 01:44 36.83536 30.92897 5494 ft 269 kts 184°
2026-05-05 01:44 36.81694 30.92716 5155 ft 261 kts 185°
2026-05-05 01:44 36.79910 30.92538 4831 ft 253 kts 185°
2026-05-05 01:44 36.78177 30.92360 4494 ft 247 kts 188°
2026-05-05 01:45 36.76582 30.91709 4159 ft 237 kts 216°
2026-05-05 01:45 36.75406 30.90369 3768 ft 226 kts 241°
2026-05-05 01:45 36.74798 30.88623 3325 ft 214 kts 265°
2026-05-05 01:45 36.74786 30.86856 3065 ft 196 kts 287°
2026-05-05 01:46 36.75235 30.85321 2864 ft 185 kts 306°
2026-05-05 01:46 36.75984 30.84042 2677 ft 181 kts 311°
2026-05-05 01:46 36.76751 30.82799 2494 ft 180 kts 311°
2026-05-05 01:46 36.77508 30.81570 2320 ft 175 kts 311°
2026-05-05 01:47 36.78278 30.80487 2116 ft 159 kts 324°
2026-05-05 01:47 36.79199 30.79851 1926 ft 144 kts 341°
2026-05-05 01:47 36.80156 30.79653 1760 ft 138 kts 358°
2026-05-05 01:47 36.81103 30.79762 1579 ft 135 kts
2026-05-05 01:48 36.82028 30.79889 1395 ft 135 kts
2026-05-05 01:48 36.82951 30.80019 1204 ft 133 kts
2026-05-05 01:48 36.83876 30.80134 1052 ft 136 kts
2026-05-05 01:48 36.84816 30.80290 874 ft 135 kts
2026-05-05 01:49 36.85733 30.80439 659 ft 134 kts
2026-05-05 01:49 36.86667 30.80551 535 ft 134 kts
2026-05-05 01:49 36.87603 30.80691 333 ft 136 kts 359°
2026-05-05 01:49 36.88539 30.80799 216 ft 134 kts
2026-05-05 01:50 36.89356 30.80891 196 ft 84 kts
2026-05-05 01:50 36.89682 30.80941 190 ft 28 kts
2026-05-05 01:50 36.89862 30.80944 196 ft 26 kts 349°
2026-05-05 01:50 36.90005 30.80887 198 ft 12 kts 336°
2026-05-05 01:51 36.90083 30.80830 200 ft 14 kts 301°
2026-05-05 01:51 36.90029 30.80754 198 ft 15 kts 189°
2026-05-05 01:51 36.89915 30.80739 192 ft 18 kts 186°
2026-05-05 01:51 36.89805 30.80724 192 ft 15 kts 186°
2026-05-05 01:52 36.89694 30.80710 203 ft 17 kts 186°
2026-05-05 01:52 36.89593 30.80694 191 ft 11 kts 194°
2026-05-05 01:52 36.89563 30.80607 198 ft 13 kts 274°
2026-05-05 01:52 36.89574 30.80487 192 ft 15 kts 276°
2026-05-05 01:53 36.89582 30.80369 195 ft 10 kts 270°
2026-05-05 01:53 36.89625 30.80307 201 ft 12 kts 348°
2026-05-05 01:53 36.89695 30.80263 200 ft 9 kts 319°
2026-05-05 01:53 36.89727 30.80228 196 ft 2 kts 319°
2026-05-05 01:54 36.89737 30.80217 195 ft 0 kts 319°